contact:dominique.lefevre@mio.osupytheas.fr, maurice.libes@osupytheas.fr, didier.mallarino@osupytheas.fr
Project:EMSO http://www.emso-fr.org/EMSO-France
Depth: 2436.0 m
Title:EMSO Ligure Ouest : Data MII capteur AQUADOPP
Date,Latitude,Longitude,X_East,Y_North,Z_Up,Amplitude_X,Amplitude_Y,Amplitude_Z,Batterie,SoundSpeed,Heading,Pitch,Roll,Pressure,TIS,Speed,Direction
, degrees North, degrees East, m.s-1, m.s-1,m.s-1, 1, 1, 1, Volt, m.s-1, degree, degree, degree, dbar, degree_C, m.s-1, degree
2021-01-20T00:04:02,42.805,6.029,0.03,-0.002,0.012,112.0,113.0,107.0,13.3,1505.3,327.3,-0.8,1.8,2470.558,13.31,0.03,93.8
2021-01-20T00:07:03,42.805,6.029,0.025,-0.019,0.014,111.0,113.0,107.0,13.3,1505.3,324.8,-0.7,1.8,2470.484,13.31,0.031,127.2
2021-01-20T00:10:03,42.805,6.029,0.022,-0.018,0.005,110.0,113.0,107.0,13.4,1505.3,324.5,-0.7,1.8,2470.505,13.32,0.028,129.3
2021-01-20T00:13:03,42.805,6.029,0.011,-0.015,-0.026,112.0,112.0,107.0,13.4,1505.3,327.6,-0.7,1.8,2470.499,13.32,0.018,143.7
2021-01-20T00:16:03,42.805,6.029,0.034,-0.012,-0.007,110.0,113.0,106.0,13.4,1505.3,328.1,-0.7,1.8,2470.53,13.32,0.036,109.4
2021-01-20T00:19:03,42.805,6.029,0.0,-0.014,0.002,112.0,112.0,106.0,13.3,1505.3,324.5,-0.7,1.9,2470.514,13.32,0.014,180.0
2021-01-20T00:22:02,42.805,6.029,0.007,-0.008,0.01,112.0,111.0,106.0,13.4,1505.3,326.8,-0.7,1.9,2470.499,13.32,0.01,138.8
2021-01-20T00:25:03,42.805,6.029,0.034,-0.006,0.03,110.0,111.0,106.0,13.3,1505.3,327.2,-0.7,1.8,2470.469,13.32,0.034,100.0
2021-01-20T00:28:03,42.805,6.029,0.042,0.006,0.002,110.0,111.0,106.0,13.3,1505.3,322.5,-0.7,1.8,2470.47,13.32,0.042,81.9
2021-01-20T00:31:03,42.805,6.029,0.035,-0.026,-0.011,109.0,112.0,106.0,13.4,1505.3,325.6,-0.7,1.8,2470.534,13.32,0.043,126.6
2021-01-20T00:34:03,42.805,6.029,0.034,-0.017,0.003,110.0,112.0,106.0,13.4,1505.3,327.7,-0.7,1.8,2470.438,13.32,0.038,116.6
2021-01-20T00:37:03,42.805,6.029,0.036,-0.017,0.008,110.0,112.0,106.0,13.4,1505.3,325.1,-0.7,1.8,2470.479,13.32,0.039,115.3
2021-01-20T00:40:03,42.805,6.029,0.021,0.0,-0.021,111.0,112.0,107.0,13.3,1505.3,324.8,-0.7,1.8,2470.496,13.32,0.021,90.0
2021-01-20T00:43:03,42.805,6.029,0.02,-0.003,-0.004,111.0,114.0,106.0,13.3,1505.3,324.3,-0.7,1.8,2470.524,13.32,0.02,98.5
2021-01-20T00:46:03,42.805,6.029,0.033,0.001,0.006,112.0,111.0,107.0,13.4,1505.3,327.7,-0.7,1.8,2470.455,13.32,0.033,88.3
2021-01-20T00:49:03,42.805,6.029,0.03,-0.003,0.0,111.0,112.0,105.0,13.4,1505.3,324.0,-0.7,1.8,2470.46,13.32,0.03,95.7
2021-01-20T00:52:03,42.805,6.029,0.037,-0.001,0.021,111.0,112.0,107.0,13.4,1505.3,323.3,-0.7,1.8,2470.461,13.32,0.037,91.5
2021-01-20T00:55:03,42.805,6.029,0.022,0.012,-0.013,110.0,113.0,106.0,13.4,1505.3,325.0,-0.7,1.8,2470.452,13.32,0.025,61.4
2021-01-20T00:58:03,42.805,6.029,0.04,-0.012,0.015,112.0,111.0,105.0,13.4,1505.3,325.9,-0.7,1.8,2470.476,13.32,0.041,106.7
2021-01-20T01:04:02,42.805,6.029,0.033,0.009,0.025,113.0,113.0,106.0,13.3,1505.2,326.8,-0.8,1.8,2470.51,13.3,0.034,74.7
2021-01-20T01:07:03,42.805,6.029,0.042,-0.007,0.001,111.0,111.0,106.0,13.4,1505.3,327.3,-0.7,1.9,2470.468,13.31,0.042,99.5
2021-01-20T01:10:03,42.805,6.029,0.046,-0.001,-0.007,110.0,111.0,106.0,13.4,1505.3,325.1,-0.7,1.8,2470.49,13.32,0.046,91.2
2021-01-20T01:13:03,42.805,6.029,0.015,-0.012,-0.001,112.0,112.0,106.0,13.3,1505.3,324.2,-0.7,1.8,2470.498,13.32,0.019,128.7
2021-01-20T01:16:03,42.805,6.029,0.033,-0.026,-0.031,110.0,111.0,107.0,13.3,1505.3,326.9,-0.7,1.8,2470.47,13.32,0.042,128.2
2021-01-20T01:19:03,42.805,6.029,0.025,0.008,0.027,112.0,112.0,106.0,13.4,1505.3,327.5,-0.7,1.8,2470.49,13.32,0.026,72.3
2021-01-20T01:22:02,42.805,6.029,0.021,-0.014,0.01,111.0,113.0,106.0,13.4,1505.3,324.2,-0.7,1.9,2470.509,13.32,0.025,123.7
2021-01-20T01:25:03,42.805,6.029,0.036,0.006,0.002,111.0,112.0,106.0,13.4,1505.3,326.7,-0.7,1.8,2470.484,13.32,0.036,80.5
2021-01-20T01:28:03,42.805,6.029,0.027,-0.009,-0.006,113.0,114.0,106.0,13.3,1505.3,324.9,-0.7,1.8,2470.471,13.32,0.028,108.4
2021-01-20T01:31:03,42.805,6.029,0.022,-0.001,-0.015,111.0,112.0,107.0,13.4,1505.3,327.8,-0.7,1.8,2470.43,13.32,0.022,92.6
2021-01-20T01:34:03,42.805,6.029,0.014,-0.004,-0.021,110.0,112.0,106.0,13.4,1505.3,326.4,-0.7,1.8,2470.452,13.32,0.014,105.9
2021-01-20T01:37:03,42.805,6.029,0.03,-0.024,0.0,111.0,112.0,106.0,13.3,1505.3,324.9,-0.7,1.8,2470.447,13.32,0.038,128.7
2021-01-20T01:40:03,42.805,6.029,0.007,-0.022,-0.004,111.0,112.0,106.0,13.4,1505.3,324.9,-0.7,1.8,2470.457,13.32,0.023,162.4
2021-01-20T01:43:03,42.805,6.029,0.041,-0.013,-0.011,111.0,114.0,107.0,13.4,1505.3,325.5,-0.7,1.8,2470.498,13.32,0.043,107.6
2021-01-20T01:46:03,42.805,6.029,0.038,-0.029,0.0,111.0,113.0,106.0,13.4,1505.3,327.1,-0.7,1.8,2470.445,13.32,0.047,127.3
2021-01-20T01:49:03,42.805,6.029,0.039,-0.026,0.004,111.0,112.0,105.0,13.4,1505.3,327.6,-0.7,1.8,2470.458,13.32,0.046,123.7
2021-01-20T01:52:03,42.805,6.029,0.039,-0.001,0.03,112.0,113.0,107.0,13.4,1505.3,327.5,-0.7,1.8,2470.433,13.32,0.039,91.5
2021-01-20T01:55:03,42.805,6.029,0.048,0.019,0.0,111.0,113.0,106.0,13.4,1505.3,327.0,-0.7,1.8,2470.465,13.32,0.051,68.4
2021-01-20T01:58:03,42.805,6.029,0.025,-0.016,0.016,111.0,112.0,106.0,13.4,1505.3,327.7,-0.7,1.8,2470.415,13.32,0.029,122.6
2021-01-20T02:04:02,42.805,6.029,0.036,-0.017,-0.006,112.0,113.0,107.0,13.4,1505.2,327.6,-0.7,1.8,2470.51,13.3,0.039,115.3
2021-01-20T02:07:03,42.805,6.029,0.048,-0.017,0.019,111.0,113.0,105.0,13.4,1505.3,327.7,-0.7,1.8,2470.439,13.31,0.05,109.5
2021-01-20T02:10:03,42.805,6.029,0.018,-0.019,-0.011,111.0,114.0,106.0,13.3,1505.3,324.8,-0.7,1.8,2470.473,13.32,0.026,136.5
2021-01-20T02:13:03,42.805,6.029,0.037,0.004,0.007,110.0,113.0,106.0,13.4,1505.3,325.4,-0.7,1.8,2470.483,13.32,0.037,83.8
2021-01-20T02:16:03,42.805,6.029,0.025,0.013,0.014,110.0,112.0,106.0,13.4,1505.3,327.2,-0.7,1.8,2470.483,13.32,0.028,62.5
2021-01-20T02:19:03,42.805,6.029,0.031,0.0,0.029,112.0,114.0,106.0,13.3,1505.3,325.7,-0.7,1.8,2470.472,13.32,0.03,90.0
2021-01-20T02:22:03,42.805,6.029,0.015,-0.002,-0.015,111.0,112.0,106.0,13.4,1505.3,324.7,-0.7,1.8,2470.446,13.32,0.015,97.6
2021-01-20T02:25:03,42.805,6.029,0.021,-0.002,-0.018,112.0,114.0,105.0,13.4,1505.3,326.4,-0.7,1.8,2470.433,13.32,0.021,95.4
2021-01-20T02:28:03,42.805,6.029,0.034,-0.005,0.024,110.0,114.0,107.0,13.4,1505.3,325.6,-0.7,1.8,2470.469,13.32,0.034,98.4
2021-01-20T02:31:03,42.805,6.029,0.036,-0.009,-0.004,111.0,113.0,107.0,13.4,1505.3,325.0,-0.7,1.9,2470.483,13.32,0.037,104.0
2021-01-20T02:34:03,42.805,6.029,0.019,0.004,0.003,111.0,114.0,106.0,13.4,1505.3,327.7,-0.7,1.8,2470.492,13.32,0.019,78.1
2021-01-20T02:37:03,42.805,6.029,0.029,0.001,0.04,112.0,114.0,106.0,13.4,1505.3,325.2,-0.7,1.8,2470.455,13.32,0.029,88.0
2021-01-20T02:40:03,42.805,6.029,0.036,0.0,0.021,111.0,114.0,107.0,13.4,1505.3,325.3,-0.7,1.8,2470.452,13.32,0.036,90.0
2021-01-20T02:43:03,42.805,6.029,0.039,-0.001,-0.022,110.0,113.0,106.0,13.4,1505.3,323.0,-0.7,1.8,2470.428,13.32,0.039,91.5
2021-01-20T02:46:03,42.805,6.029,0.034,-0.006,0.001,110.0,113.0,107.0,13.4,1505.3,326.1,-0.7,1.8,2470.422,13.32,0.034,100.0
2021-01-20T02:49:03,42.805,6.029,0.043,0.0,-0.018,111.0,112.0,107.0,13.4,1505.3,326.7,-0.7,1.8,2470.4,13.32,0.043,90.0
2021-01-20T02:52:03,42.805,6.029,0.03,-0.018,-0.009,112.0,113.0,107.0,13.4,1505.3,327.8,-0.7,1.8,2470.428,13.32,0.034,121.0
2021-01-20T02:55:03,42.805,6.029,0.044,-0.022,0.007,112.0,113.0,107.0,13.3,1505.3,324.4,-0.7,1.9,2470.405,13.32,0.049,116.6
2021-01-20T02:58:03,42.805,6.029,0.059,0.003,0.013,112.0,111.0,107.0,13.4,1505.3,325.4,-0.7,1.8,2470.454,13.32,0.059,87.1
2021-01-20T03:04:03,42.805,6.029,0.027,-0.031,0.002,111.0,113.0,105.0,13.3,1505.2,325.8,-0.7,1.8,2470.49,13.3,0.041,138.9
2021-01-20T03:07:03,42.805,6.029,0.045,-0.017,0.012,112.0,112.0,105.0,13.4,1505.3,325.9,-0.7,1.8,2470.474,13.31,0.048,110.7
2021-01-20T03:10:03,42.805,6.029,0.02,0.008,0.002,111.0,115.0,106.0,13.4,1505.3,326.2,-0.7,1.8,2470.47,13.31,0.021,68.2
2021-01-20T03:13:03,42.805,6.029,0.055,0.001,-0.014,112.0,112.0,106.0,13.4,1505.3,324.3,-0.7,1.8,2470.438,13.32,0.055,89.0
2021-01-20T03:16:03,42.805,6.029,0.024,-0.006,0.004,110.0,113.0,106.0,13.4,1505.3,327.5,-0.7,1.8,2470.402,13.32,0.024,104.0
2021-01-20T03:19:03,42.805,6.029,0.033,0.004,-0.001,112.0,112.0,106.0,13.4,1505.3,327.5,-0.7,1.9,2470.459,13.32,0.033,83.1
2021-01-20T03:22:03,42.805,6.029,0.036,-0.009,0.019,111.0,114.0,107.0,13.3,1505.3,326.7,-0.7,1.8,2470.438,13.32,0.037,104.0
2021-01-20T03:25:03,42.805,6.029,0.017,0.001,-0.016,110.0,113.0,106.0,13.4,1505.3,323.2,-0.7,1.8,2470.42,13.32,0.017,86.6
2021-01-20T03:28:03,42.805,6.029,0.019,-0.003,-0.023,110.0,113.0,106.0,13.4,1505.3,324.2,-0.7,1.8,2470.441,13.32,0.019,99.0
2021-01-20T03:31:03,42.805,6.029,0.018,-0.008,-0.007,111.0,112.0,107.0,13.3,1505.3,326.9,-0.7,1.8,2470.421,13.32,0.019,114.0
2021-01-20T03:34:03,42.805,6.029,0.024,-0.004,-0.02,111.0,112.0,108.0,13.3,1505.3,325.5,-0.7,1.8,2470.435,13.32,0.024,99.5
2021-01-20T03:37:03,42.805,6.029,0.024,-0.002,0.011,110.0,112.0,107.0,13.4,1505.3,325.2,-0.7,1.8,2470.421,13.32,0.024,94.8
2021-01-20T03:40:03,42.805,6.029,0.027,-0.018,0.027,113.0,114.0,106.0,13.3,1505.3,323.3,-0.7,1.9,2470.435,13.32,0.032,123.7
2021-01-20T03:43:03,42.805,6.029,0.028,-0.003,-0.003,112.0,112.0,106.0,13.3,1505.3,324.6,-0.7,1.8,2470.415,13.32,0.028,96.1
2021-01-20T03:46:03,42.805,6.029,0.01,0.0,-0.001,112.0,113.0,106.0,13.3,1505.3,328.2,-0.7,1.8,2470.424,13.32,0.01,90.0
2021-01-20T03:49:03,42.805,6.029,0.037,-0.021,-0.013,111.0,112.0,107.0,13.4,1505.3,327.1,-0.7,1.8,2470.457,13.32,0.042,119.6
2021-01-20T03:52:03,42.805,6.029,0.038,0.0,-0.035,112.0,113.0,106.0,13.4,1505.3,324.7,-0.7,1.8,2470.439,13.32,0.038,90.0
2021-01-20T03:55:03,42.805,6.029,0.018,0.008,-0.019,109.0,112.0,106.0,13.4,1505.3,324.5,-0.7,1.8,2470.408,13.32,0.019,66.0
2021-01-20T03:58:03,42.805,6.029,0.029,-0.03,0.005,112.0,112.0,107.0,13.4,1505.3,327.5,-0.7,1.9,2470.432,13.32,0.041,136.0
2021-01-20T04:04:03,42.805,6.029,0.015,-0.009,-0.008,111.0,111.0,105.0,13.3,1505.2,328.0,-0.7,1.8,2470.47,13.3,0.017,121.0
2021-01-20T04:07:03,42.805,6.029,0.038,-0.011,0.023,110.0,112.0,107.0,13.4,1505.3,325.6,-0.7,1.8,2470.455,13.31,0.039,106.1
2021-01-20T04:10:03,42.805,6.029,0.041,0.0,0.0,110.0,111.0,107.0,13.4,1505.3,324.2,-0.7,1.8,2470.434,13.31,0.041,90.0
2021-01-20T04:13:03,42.805,6.029,0.044,-0.011,-0.013,111.0,113.0,106.0,13.4,1505.3,324.7,-0.7,1.8,2470.472,13.32,0.045,104.0
2021-01-20T04:16:03,42.805,6.029,0.021,-0.007,-0.004,111.0,114.0,107.0,13.4,1505.3,327.6,-0.7,1.8,2470.484,13.32,0.022,108.4
2021-01-20T04:19:03,42.805,6.029,0.028,0.0,0.02,110.0,112.0,107.0,13.4,1505.3,322.9,-0.7,1.8,2470.458,13.32,0.028,90.0
2021-01-20T04:22:03,42.805,6.029,0.032,0.005,0.0,111.0,113.0,106.0,13.4,1505.3,324.7,-0.7,1.8,2470.386,13.32,0.032,81.1
2021-01-20T04:25:03,42.805,6.029,0.031,-0.03,-0.019,111.0,112.0,107.0,13.4,1505.3,326.4,-0.7,1.9,2470.448,13.32,0.043,134.1
2021-01-20T04:28:03,42.805,6.029,0.025,0.004,0.019,110.0,112.0,107.0,13.4,1505.3,326.0,-0.7,1.8,2470.445,13.32,0.025,80.9
2021-01-20T04:31:03,42.805,6.029,0.029,-0.014,0.0,110.0,112.0,106.0,13.4,1505.3,326.2,-0.7,1.8,2470.389,13.32,0.032,115.8
2021-01-20T04:34:03,42.805,6.029,0.028,-0.015,0.005,110.0,113.0,107.0,13.4,1505.3,325.7,-0.7,1.8,2470.426,13.32,0.031,118.2
2021-01-20T04:37:03,42.805,6.029,0.041,0.0,-0.001,112.0,112.0,106.0,13.3,1505.3,323.0,-0.7,1.8,2470.397,13.32,0.041,90.0
2021-01-20T04:40:03,42.805,6.029,0.034,-0.016,-0.017,112.0,111.0,106.0,13.4,1505.3,323.5,-0.7,1.8,2470.369,13.32,0.037,115.2
2021-01-20T04:43:03,42.805,6.029,0.037,-0.027,0.011,111.0,111.0,107.0,13.4,1505.3,323.9,-0.7,1.8,2470.426,13.32,0.045,126.1
2021-01-20T04:46:03,42.805,6.029,0.058,-0.022,0.019,109.0,112.0,106.0,13.4,1505.3,324.7,-0.7,1.8,2470.436,13.32,0.062,110.8
2021-01-20T04:49:03,42.805,6.029,0.046,-0.009,-0.002,111.0,111.0,107.0,13.4,1505.3,328.4,-0.7,1.8,2470.432,13.32,0.046,101.1
2021-01-20T04:52:03,42.805,6.029,0.031,-0.014,0.042,111.0,112.0,106.0,13.4,1505.3,324.0,-0.7,1.8,2470.463,13.32,0.034,114.3
2021-01-20T04:55:03,42.805,6.029,0.052,-0.013,0.039,111.0,111.0,106.0,13.4,1505.3,326.0,-0.7,1.8,2470.364,13.32,0.053,104.0
2021-01-20T04:58:03,42.805,6.029,0.031,-0.025,-0.013,110.0,112.0,106.0,13.4,1505.3,326.1,-0.7,1.8,2470.38,13.32,0.039,128.9
2021-01-20T05:04:03,42.805,6.029,0.034,-0.002,0.01,112.0,112.0,106.0,13.4,1505.2,324.3,-0.7,1.8,2470.414,13.3,0.034,93.4
2021-01-20T05:07:03,42.805,6.029,0.0,-0.006,-0.017,110.0,111.0,106.0,13.4,1505.3,324.4,-0.7,1.9,2470.378,13.31,0.006,180.0
2021-01-20T05:10:03,42.805,6.029,0.031,-0.005,-0.016,111.0,112.0,105.0,13.4,1505.3,324.5,-0.7,1.8,2470.417,13.31,0.031,99.2
2021-01-20T05:16:02,42.805,6.029,0.026,-0.016,0.008,110.0,113.0,106.0,13.4,1505.2,324.9,-0.7,1.8,2470.435,13.3,0.03,121.6
2021-01-20T05:19:03,42.805,6.029,0.03,-0.013,0.02,111.0,112.0,107.0,13.4,1505.3,325.9,-0.7,1.8,2470.421,13.31,0.032,113.4
2021-01-20T05:22:03,42.805,6.029,0.036,-0.017,0.003,110.0,112.0,106.0,13.4,1505.3,326.6,-0.7,1.8,2470.411,13.31,0.039,115.3
2021-01-20T05:25:03,42.805,6.029,0.026,-0.008,-0.034,110.0,111.0,106.0,13.3,1505.3,326.2,-0.7,1.8,2470.416,13.32,0.027,107.1
2021-01-20T05:28:03,42.805,6.029,0.04,0.0,-0.008,110.0,112.0,106.0,13.4,1505.3,323.4,-0.7,1.8,2470.506,13.32,0.04,90.0
2021-01-20T05:31:03,42.805,6.029,0.051,-0.015,-0.035,111.0,112.0,105.0,13.4,1505.3,325.6,-0.7,1.8,2470.412,13.32,0.053,106.4
2021-01-20T05:34:03,42.805,6.029,0.04,-0.01,0.007,112.0,111.0,107.0,13.4,1505.3,325.3,-0.7,1.8,2470.436,13.32,0.041,104.0
2021-01-20T05:37:03,42.805,6.029,0.027,-0.003,0.024,111.0,110.0,107.0,13.3,1505.3,324.3,-0.7,1.8,2470.426,13.32,0.027,96.3
2021-01-20T05:40:03,42.805,6.029,0.02,-0.031,-0.011,110.0,111.0,106.0,13.4,1505.3,327.0,-0.7,1.9,2470.412,13.32,0.036,147.2
2021-01-20T05:43:03,42.805,6.029,0.047,-0.003,0.007,110.0,111.0,105.0,13.3,1505.3,327.1,-0.7,1.9,2470.419,13.32,0.047,93.6
2021-01-20T05:46:03,42.805,6.029,0.044,-0.007,-0.008,110.0,112.0,105.0,13.4,1505.3,325.5,-0.7,1.8,2470.424,13.32,0.044,99.0
2021-01-20T05:49:03,42.805,6.029,0.042,-0.001,0.003,111.0,111.0,105.0,13.3,1505.3,326.2,-0.7,1.8,2470.423,13.32,0.042,91.4
2021-01-20T05:52:03,42.805,6.029,0.02,-0.026,0.01,111.0,112.0,106.0,13.4,1505.3,328.4,-0.7,1.8,2470.388,13.32,0.032,142.4
2021-01-20T05:55:03,42.805,6.029,0.038,-0.014,-0.019,110.0,112.0,106.0,13.4,1505.3,327.0,-0.7,1.8,2470.411,13.32,0.04,110.2
2021-01-20T05:58:03,42.805,6.029,0.013,-0.014,0.026,110.0,113.0,106.0,13.4,1505.3,326.4,-0.7,1.8,2470.387,13.32,0.019,137.1
2021-01-20T06:04:03,42.805,6.029,0.014,-0.026,0.005,111.0,113.0,105.0,13.3,1505.2,327.6,-0.7,1.9,2470.435,13.3,0.029,151.7
2021-01-20T06:07:03,42.805,6.029,0.033,-0.006,-0.002,111.0,111.0,106.0,13.4,1505.3,323.6,-0.7,1.8,2470.426,13.31,0.033,100.3
2021-01-20T06:10:03,42.805,6.029,0.041,-0.017,-0.011,111.0,112.0,107.0,13.4,1505.3,326.3,-0.7,1.8,2470.43,13.31,0.044,112.5
2021-01-20T06:13:03,42.805,6.029,0.051,-0.009,0.003,111.0,112.0,105.0,13.4,1505.3,324.3,-0.7,1.9,2470.391,13.32,0.051,100.0
2021-01-20T06:16:03,42.805,6.029,0.022,0.008,-0.008,109.0,112.0,105.0,13.3,1505.3,325.7,-0.7,1.8,2470.436,13.32,0.023,70.0
2021-01-20T06:19:03,42.805,6.029,0.039,-0.01,0.005,110.0,110.0,107.0,13.4,1505.3,327.7,-0.7,1.8,2470.443,13.32,0.04,104.4
2021-01-20T06:22:03,42.805,6.029,0.04,-0.024,0.009,111.0,111.0,106.0,13.4,1505.3,324.8,-0.7,1.8,2470.442,13.32,0.046,121.0
2021-01-20T06:25:03,42.805,6.029,0.029,0.0,0.017,112.0,112.0,107.0,13.4,1505.3,323.9,-0.7,1.8,2470.394,13.32,0.028,90.0
2021-01-20T06:28:03,42.805,6.029,0.021,-0.017,-0.005,110.0,113.0,107.0,13.3,1505.3,322.6,-0.7,1.8,2470.424,13.32,0.027,129.0
2021-01-20T06:31:03,42.805,6.029,0.036,0.004,-0.017,110.0,113.0,107.0,13.4,1505.3,323.3,-0.7,1.8,2470.423,13.32,0.036,83.7
2021-01-20T06:34:03,42.805,6.029,0.03,-0.004,-0.014,110.0,113.0,106.0,13.3,1505.3,324.2,-0.7,1.8,2470.383,13.32,0.03,97.6
2021-01-20T06:37:03,42.805,6.029,0.023,-0.023,-0.006,110.0,111.0,106.0,13.3,1505.3,324.9,-0.7,1.9,2470.408,13.32,0.032,135.0
2021-01-20T06:40:03,42.805,6.029,0.022,-0.021,-0.006,111.0,112.0,106.0,13.4,1505.3,327.3,-0.7,1.8,2470.423,13.32,0.03,133.7
2021-01-20T06:43:03,42.805,6.029,0.029,-0.025,-0.024,110.0,112.0,106.0,13.4,1505.3,327.2,-0.7,1.8,2470.398,13.32,0.038,130.8
2021-01-20T06:46:03,42.805,6.029,0.027,-0.033,0.0,110.0,112.0,106.0,13.4,1505.3,326.8,-0.7,1.8,2470.415,13.32,0.042,140.7
2021-01-20T06:49:03,42.805,6.029,0.026,-0.02,0.003,110.0,110.0,106.0,13.4,1505.3,327.5,-0.7,1.8,2470.41,13.32,0.032,127.6
2021-01-20T06:52:03,42.805,6.029,0.048,-0.018,0.005,110.0,111.0,106.0,13.3,1505.3,325.8,-0.7,1.8,2470.405,13.32,0.051,110.6
2021-01-20T06:55:03,42.805,6.029,0.043,0.01,0.017,110.0,110.0,106.0,13.4,1505.3,324.3,-0.7,1.8,2470.36,13.32,0.044,76.9
2021-01-20T06:58:03,42.805,6.029,0.021,-0.027,0.003,110.0,111.0,105.0,13.4,1505.3,324.3,-0.8,1.8,2470.335,13.32,0.034,142.1
2021-01-20T07:04:03,42.805,6.029,0.031,-0.018,0.007,110.0,112.0,106.0,13.3,1505.2,323.8,-0.7,1.8,2470.457,13.3,0.035,120.1
2021-01-20T07:07:03,42.805,6.029,0.024,-0.027,-0.033,110.0,110.0,106.0,13.4,1505.3,326.0,-0.8,1.9,2470.451,13.31,0.036,138.4
2021-01-20T07:10:03,42.805,6.029,0.023,-0.005,0.013,111.0,112.0,107.0,13.4,1505.3,324.5,-0.7,1.8,2470.448,13.31,0.023,102.3
2021-01-20T07:13:03,42.805,6.029,0.037,-0.027,-0.01,110.0,113.0,106.0,13.4,1505.3,327.4,-0.7,1.9,2470.458,13.32,0.045,126.1
2021-01-20T07:16:03,42.805,6.029,0.017,-0.016,0.002,110.0,111.0,107.0,13.4,1505.3,324.1,-0.7,1.8,2470.464,13.32,0.023,133.3
2021-01-20T07:19:03,42.805,6.029,0.024,-0.016,-0.014,110.0,110.0,106.0,13.3,1505.3,328.0,-0.7,1.9,2470.472,13.32,0.028,123.7
2021-01-20T07:22:03,42.805,6.029,0.03,-0.017,-0.001,112.0,111.0,106.0,13.4,1505.3,324.0,-0.7,1.8,2470.409,13.32,0.034,119.5
2021-01-20T07:25:03,42.805,6.029,0.021,-0.015,0.028,111.0,111.0,105.0,13.4,1505.3,323.6,-0.7,1.8,2470.415,13.32,0.025,125.5
2021-01-20T07:28:03,42.805,6.029,0.021,-0.013,0.007,109.0,111.0,106.0,13.4,1505.3,327.9,-0.7,1.8,2470.447,13.32,0.024,121.8
2021-01-20T07:31:03,42.805,6.029,0.041,-0.037,0.009,110.0,112.0,105.0,13.4,1505.3,328.2,-0.7,1.8,2470.396,13.32,0.055,132.1
2021-01-20T07:34:03,42.805,6.029,0.03,-0.016,-0.001,111.0,111.0,106.0,13.4,1505.3,325.9,-0.7,1.8,2470.379,13.32,0.034,118.1
2021-01-20T07:37:03,42.805,6.029,0.035,-0.006,-0.028,111.0,112.0,105.0,13.4,1505.3,324.3,-0.7,1.8,2470.416,13.32,0.035,99.7
2021-01-20T07:40:03,42.805,6.029,0.034,-0.022,-0.023,110.0,111.0,106.0,13.4,1505.3,326.4,-0.7,1.8,2470.372,13.32,0.04,122.9
2021-01-20T07:43:03,42.805,6.029,0.033,-0.006,-0.034,111.0,111.0,106.0,13.4,1505.3,324.4,-0.7,1.8,2470.444,13.32,0.033,100.3
2021-01-20T07:46:03,42.805,6.029,0.053,-0.028,-0.004,109.0,112.0,105.0,13.4,1505.3,327.1,-0.7,1.8,2470.455,13.32,0.059,117.9
2021-01-20T07:49:03,42.805,6.029,0.062,-0.014,-0.029,111.0,110.0,106.0,13.4,1505.3,325.9,-0.7,1.8,2470.423,13.32,0.063,102.7
2021-01-20T07:52:03,42.805,6.029,0.038,-0.016,0.009,111.0,111.0,106.0,13.4,1505.3,325.4,-0.7,1.8,2470.465,13.32,0.041,112.8
2021-01-20T08:04:02,42.805,6.029,0.04,-0.033,0.012,111.0,111.0,106.0,13.4,1505.2,325.0,-0.8,1.8,2470.505,13.29,0.051,129.5
2021-01-20T08:07:03,42.805,6.029,0.035,-0.026,0.01,111.0,110.0,106.0,13.4,1505.2,326.1,-0.7,1.8,2470.47,13.3,0.043,126.6
2021-01-20T08:10:03,42.805,6.029,0.014,-0.002,-0.013,111.0,112.0,106.0,13.3,1505.3,326.1,-0.7,1.8,2470.474,13.31,0.014,98.1
2021-01-20T08:13:03,42.805,6.029,0.027,-0.01,-0.023,111.0,112.0,106.0,13.4,1505.3,326.3,-0.7,1.9,2470.509,13.31,0.028,110.3
2021-01-20T08:16:03,42.805,6.029,0.031,-0.021,0.009,110.0,111.0,106.0,13.4,1505.3,323.5,-0.7,1.8,2470.426,13.32,0.037,124.1
2021-01-20T08:19:03,42.805,6.029,0.026,-0.029,0.002,111.0,112.0,108.0,13.4,1505.3,326.9,-0.7,1.8,2470.472,13.32,0.038,138.1
2021-01-20T08:22:03,42.805,6.029,0.02,-0.02,-0.008,110.0,112.0,106.0,13.4,1505.3,324.2,-0.7,1.8,2470.479,13.32,0.028,135.0
2021-01-20T08:25:03,42.805,6.029,0.024,-0.017,-0.01,111.0,113.0,106.0,13.4,1505.3,327.0,-0.7,1.8,2470.505,13.32,0.029,125.3
2021-01-20T08:28:03,42.805,6.029,0.001,-0.022,0.007,111.0,113.0,106.0,13.4,1505.3,322.7,-0.7,1.8,2470.446,13.32,0.022,177.4
2021-01-20T08:31:03,42.805,6.029,0.027,-0.013,0.007,111.0,112.0,106.0,13.4,1505.3,324.2,-0.7,1.8,2470.484,13.32,0.029,115.7
2021-01-20T08:34:03,42.805,6.029,0.007,-0.031,0.013,112.0,111.0,106.0,13.3,1505.3,325.7,-0.7,1.8,2470.416,13.32,0.031,167.3
2021-01-20T08:37:03,42.805,6.029,0.039,-0.021,0.019,110.0,112.0,106.0,13.3,1505.3,323.7,-0.7,1.8,2470.447,13.32,0.044,118.3
2021-01-20T08:40:03,42.805,6.029,0.009,-0.015,-0.014,111.0,112.0,106.0,13.3,1505.3,324.4,-0.7,1.8,2470.445,13.32,0.017,149.0
2021-01-20T08:43:03,42.805,6.029,-0.007,-0.031,-0.012,111.0,112.0,106.0,13.4,1505.3,327.9,-0.7,1.8,2470.431,13.32,0.031,192.7
2021-01-20T08:46:03,42.805,6.029,0.03,-0.019,0.018,111.0,111.0,106.0,13.4,1505.3,323.3,-0.7,1.8,2470.483,13.32,0.035,122.3
2021-01-20T08:49:03,42.805,6.029,0.008,-0.024,0.0,113.0,112.0,108.0,13.4,1505.3,324.5,-0.7,1.8,2470.459,13.32,0.025,161.6
2021-01-20T08:52:03,42.805,6.029,0.025,-0.015,0.012,111.0,112.0,106.0,13.4,1505.3,327.0,-0.7,1.9,2470.479,13.32,0.029,121.0
2021-01-20T08:55:03,42.805,6.029,0.012,-0.033,-0.022,113.0,112.0,106.0,13.3,1505.3,327.0,-0.7,1.8,2470.474,13.32,0.035,160.0
2021-01-20T08:58:03,42.805,6.029,0.039,0.002,0.009,112.0,113.0,108.0,13.3,1505.3,325.0,-0.7,1.8,2470.457,13.32,0.039,87.1
2021-01-20T09:04:03,42.805,6.029,0.014,-0.02,-0.017,112.0,112.0,107.0,13.3,1505.2,323.1,-0.7,1.8,2470.537,13.3,0.024,145.0
2021-01-20T09:07:03,42.805,6.029,0.024,-0.026,-0.015,111.0,111.0,107.0,13.3,1505.3,324.9,-0.7,1.8,2470.486,13.31,0.035,137.3
2021-01-20T09:10:03,42.805,6.029,0.027,-0.03,0.001,111.0,112.0,107.0,13.4,1505.3,326.2,-0.7,1.8,2470.499,13.32,0.04,138.0
2021-01-20T09:13:03,42.805,6.029,0.014,-0.013,-0.004,112.0,112.0,107.0,13.4,1505.3,326.3,-0.7,1.8,2470.487,13.32,0.019,132.9
2021-01-20T09:16:03,42.805,6.029,0.028,-0.017,0.025,112.0,111.0,107.0,13.3,1505.3,325.6,-0.7,1.8,2470.478,13.32,0.032,121.3
2021-01-20T09:19:03,42.805,6.029,0.025,-0.021,-0.005,110.0,112.0,108.0,13.4,1505.3,327.6,-0.7,1.8,2470.466,13.32,0.032,130.0
2021-01-20T09:22:03,42.805,6.029,0.025,-0.002,0.011,110.0,113.0,107.0,13.4,1505.3,326.6,-0.7,1.9,2470.492,13.32,0.025,94.6
2021-01-20T09:25:03,42.805,6.029,0.022,-0.023,0.023,110.0,113.0,107.0,13.4,1505.3,323.4,-0.7,1.8,2470.49,13.32,0.031,136.3
2021-01-20T09:28:03,42.805,6.029,0.014,-0.011,0.006,110.0,112.0,107.0,13.3,1505.3,325.2,-0.7,1.9,2470.514,13.32,0.017,128.2
2021-01-20T09:31:03,42.805,6.029,-0.002,0.001,-0.042,112.0,112.0,106.0,13.4,1505.3,325.5,-0.7,1.8,2470.498,13.32,0.002,296.6
2021-01-20T09:34:03,42.805,6.029,0.02,-0.015,-0.022,112.0,113.0,108.0,13.4,1505.3,327.1,-0.7,1.8,2470.496,13.32,0.025,126.9
2021-01-20T09:37:03,42.805,6.029,0.039,-0.015,-0.007,110.0,112.0,107.0,13.3,1505.3,324.0,-0.7,1.8,2470.516,13.33,0.041,111.0
2021-01-20T09:40:03,42.805,6.029,0.017,-0.011,0.019,112.0,112.0,107.0,13.4,1505.3,324.4,-0.7,1.8,2470.471,13.32,0.02,122.9
2021-01-20T09:43:03,42.805,6.029,0.017,-0.013,-0.013,111.0,111.0,107.0,13.4,1505.3,328.1,-0.7,1.9,2470.475,13.32,0.021,127.4
2021-01-20T09:46:03,42.805,6.029,0.007,-0.013,-0.002,111.0,113.0,106.0,13.4,1505.3,324.9,-0.7,1.8,2470.49,13.32,0.014,151.7
2021-01-20T09:49:03,42.805,6.029,0.029,-0.017,-0.018,112.0,111.0,106.0,13.4,1505.3,325.2,-0.7,1.8,2470.479,13.33,0.033,120.4
2021-01-20T09:52:03,42.805,6.029,0.011,-0.02,-0.025,110.0,113.0,106.0,13.4,1505.3,323.8,-0.7,1.8,2470.486,13.33,0.022,151.2
2021-01-20T09:55:03,42.805,6.029,0.019,-0.016,-0.006,112.0,112.0,107.0,13.3,1505.3,328.1,-0.7,1.8,2470.481,13.33,0.024,130.1
2021-01-20T09:58:03,42.805,6.029,0.014,-0.03,-0.011,111.0,112.0,107.0,13.4,1505.3,324.4,-0.7,1.8,2470.531,13.33,0.033,155.0
2021-01-20T10:04:03,42.805,6.029,0.016,-0.019,-0.038,112.0,112.0,106.0,13.4,1505.3,324.9,-0.7,1.8,2470.591,13.31,0.024,139.9
2021-01-20T10:07:03,42.805,6.029,0.024,-0.012,0.031,110.0,113.0,107.0,13.4,1505.3,326.9,-0.7,1.8,2470.542,13.31,0.026,116.6
2021-01-20T10:10:03,42.805,6.029,0.026,-0.019,-0.017,111.0,113.0,106.0,13.3,1505.3,327.2,-0.7,1.8,2470.532,13.32,0.032,126.2